This is the latest recevied weather packets stored in our database for station/object OK1FET-15. If no packets are shown the sender has not sent any weather packets the latest 1 day(s).
| Time | Temp. | Humidity | Pressure | Rain* | Wind** | Luminosity | Snow |
|---|---|---|---|---|---|---|---|
| 1777982230 | 30.56° C | 25% | 1005.6 hPa | - | 0 m/s | - | - |
| 1777981921 | 32.22° C | 24% | 1005.6 hPa | - | 0 m/s | - | - |
| 1777981612 | 32.78° C | 23% | 1005.7 hPa | - | 0 m/s | - | - |
| 1777981303 | 33.33° C | 23% | 1005.7 hPa | - | 0 m/s | - | - |
| 1777980994 | 33.89° C | 23% | 1005.7 hPa | - | 0.45 m/s, 81° | - | - |
| 1777980685 | 32.78° C | 24% | 1005.8 hPa | - | 0.45 m/s, 111° | - | - |
| 1777980376 | 32.22° C | 23% | 1005.9 hPa | - | 0.45 m/s, 130° | - | - |
| 1777980067 | 31.67° C | 23% | 1005.9 hPa | - | 0.89 m/s, 78° | - | - |
| 1777979758 | 33.33° C | 23% | 1006 hPa | - | 0 m/s | - | - |
| 1777979449 | 33.89° C | 23% | 1006 hPa | - | 0.45 m/s, 89° | - | - |
| 1777979140 | 33.33° C | 23% | 1006 hPa | - | 0 m/s | - | - |
| 1777978831 | 33.33° C | 23% | 1006.1 hPa | - | 0.45 m/s, 133° | - | - |
| 1777978522 | 33.33° C | 24% | 1006.2 hPa | - | 0.45 m/s, 142° | - | - |
| 1777978213 | 32.78° C | 24% | 1006.2 hPa | - | 0 m/s | - | - |
| 1777977904 | 32.78° C | 24% | 1006.3 hPa | - | 0.45 m/s, 101° | - | - |
| 1777977595 | 32.78° C | 25% | 1006.3 hPa | - | 0.45 m/s, 33° | - | - |
| 1777977286 | 32.22° C | 25% | 1006.4 hPa | - | 0.45 m/s, 90° | - | - |
| 1777976977 | 31.67° C | 26% | 1006.4 hPa | - | 0.45 m/s, 109° | - | - |
| 1777976668 | 31.67° C | 26% | 1006.6 hPa | - | 0.45 m/s, 74° | - | - |
| 1777976359 | 30.56° C | 26% | 1006.6 hPa | - | 0.45 m/s, 114° | - | - |
| 1777976059 | 30.56° C | 26% | 1006.7 hPa | - | 0.45 m/s, 61° | - | - |
| 1777975742 | 31.11° C | 26% | 1006.7 hPa | - | 0 m/s | - | - |
| 1777975433 | 32.22° C | 25% | 1006.7 hPa | - | 0.45 m/s, 56° | - | - |
| 1777975124 | 32.22° C | 26% | 1006.8 hPa | - | 0 m/s | - | - |
| 1777974815 | 31.11° C | 26% | 1006.8 hPa | - | 0.45 m/s, 100° | - | - |
* Rain since midnight (hover to see other rain measurements)
** Current wind speed in m/s (hover to see current wind gust speed)